Time,TemperatureF,DewpointF,PressureIn,WindDirection,WindDirectionDegrees,WindSpeedMPH,WindSpeedGustMPH,Humidity,HourlyPrecipIn,Conditions,Clouds,dailyrainin,SolarRadiationWatts/m^2,SoftwareType,DateUTC
2013-02-24 00:22:00,8.0,5.0,-100.00,WNW,282,0.0,3.0,87,0.00,,,0.00,0.000000,,2013-02-24 08:22:00,
2013-02-24 01:21:00,7.0,3.0,-100.00,WNW,295,0.0,0.0,85,0.00,,,0.00,0.000000,,2013-02-24 09:21:00,
2013-02-24 02:21:00,7.0,4.0,-100.00,West,275,0.0,3.0,86,-99.99,,,0.00,0.000000,,2013-02-24 10:21:00,
2013-02-24 03:21:00,7.0,3.0,-100.00,WNW,289,0.0,3.0,84,0.00,,,0.00,0.000000,,2013-02-24 11:21:00,
2013-02-24 03:32:00,7.0,3.0,-100.00,WNW,289,0.0,3.0,84,0.00,,,0.00,0.000000,,2013-02-24 11:32:00,
2013-02-24 04:21:00,7.0,3.0,-100.00,West,280,0.0,3.0,85,0.00,,,0.00,0.000000,,2013-02-24 12:21:00,
2013-02-24 05:25:00,8.0,5.0,-100.00,West,280,0.0,3.0,86,0.00,,,0.00,0.000000,,2013-02-24 13:25:00,
2013-02-24 06:23:00,7.0,3.0,-100.00,WNW,283,0.0,3.0,84,0.00,,,0.00,0.000000,,2013-02-24 14:23:00,
2013-02-24 07:22:00,7.0,3.0,-100.00,WNW,287,0.0,4.0,85,0.00,,,0.00,0.000000,,2013-02-24 15:22:00,
2013-02-24 08:21:00,14.0,11.0,-100.00,West,274,0.0,3.0,88,0.00,,,0.00,4.000000,,2013-02-24 16:21:00,
2013-02-24 08:31:00,14.0,11.0,-100.00,West,274,0.0,3.0,88,0.00,,,0.00,4.000000,,2013-02-24 16:31:00,
2013-02-24 08:41:00,14.0,11.0,-100.00,West,274,0.0,3.0,88,0.00,,,0.00,4.000000,,2013-02-24 16:41:00,
2013-02-24 08:52:00,14.0,11.0,-100.00,West,274,0.0,3.0,88,0.00,,,0.00,4.000000,,2013-02-24 16:52:00,
2013-02-24 09:21:00,19.0,15.0,-100.00,WNW,287,0.0,3.0,85,-99.99,,,0.00,8.000000,,2013-02-24 17:21:00,
2013-02-24 09:32:00,19.0,15.0,-100.00,WNW,287,0.0,3.0,85,-99.99,,,0.00,8.000000,,2013-02-24 17:32:00,
2013-02-24 09:41:00,19.0,15.0,-100.00,WNW,287,0.0,3.0,85,-99.99,,,0.00,8.000000,,2013-02-24 17:41:00,
2013-02-24 09:52:00,19.0,15.0,-100.00,WNW,287,0.0,3.0,85,-99.99,,,0.00,8.000000,,2013-02-24 17:52:00,
2013-02-24 10:22:00,27.0,23.0,-100.00,WNW,292,0.0,0.0,83,0.00,,,0.00,14.000000,,2013-02-24 18:22:00,
2013-02-24 10:31:00,27.0,23.0,-100.00,WNW,292,0.0,0.0,83,0.00,,,0.00,14.000000,,2013-02-24 18:31:00,
2013-02-24 10:42:00,27.0,23.0,-100.00,WNW,292,0.0,0.0,83,0.00,,,0.00,14.000000,,2013-02-24 18:42:00,
2013-02-24 10:51:00,27.0,23.0,-100.00,WNW,292,0.0,0.0,83,0.00,,,0.00,14.000000,,2013-02-24 18:51:00,
2013-02-24 11:22:00,36.0,28.0,-100.00,ESE,107,0.0,0.0,73,0.00,,,0.00,19.000000,,2013-02-24 19:22:00,
2013-02-24 11:32:00,36.0,28.0,-100.00,ESE,107,0.0,0.0,73,0.00,,,0.00,19.000000,,2013-02-24 19:32:00,
2013-02-24 12:21:00,46.0,28.0,-100.00,ESE,104,0.0,3.0,50,0.00,,,0.00,37.000000,,2013-02-24 20:21:00,
2013-02-24 13:21:00,45.0,29.0,-100.00,SSE,160,0.0,6.0,54,-99.99,,,0.02,128.000000,,2013-02-24 21:21:00,
2013-02-24 14:21:00,41.0,26.0,-100.00,ESE,113,0.0,6.0,55,-99.99,,,0.10,508.000000,,2013-02-24 22:21:00,
2013-02-24 14:31:00,41.0,26.0,-100.00,ESE,113,0.0,6.0,55,-99.99,,,0.10,508.000000,,2013-02-24 22:31:00,
2013-02-24 14:41:00,41.0,26.0,-100.00,ESE,113,0.0,6.0,55,-99.99,,,0.10,508.000000,,2013-02-24 22:41:00,
2013-02-24 14:51:00,41.0,26.0,-100.00,ESE,113,0.0,6.0,55,-99.99,,,0.10,508.000000,,2013-02-24 22:51:00,
2013-02-24 15:21:00,41.0,30.0,-100.00,WSW,253,3.0,8.0,65,0.05,,,0.15,169.000000,,2013-02-24 23:21:00,
2013-02-24 15:31:00,41.0,30.0,-100.00,WSW,253,3.0,8.0,65,0.05,,,0.15,169.000000,,2013-02-24 23:31:00,
2013-02-24 15:41:00,41.0,30.0,-100.00,WSW,253,3.0,8.0,65,0.05,,,0.15,169.000000,,2013-02-24 23:41:00,
2013-02-24 15:52:00,41.0,30.0,-100.00,WSW,253,3.0,8.0,65,0.05,,,0.15,169.000000,,2013-02-24 23:52:00,
2013-02-24 16:21:00,37.0,27.0,-100.00,WNW,282,3.0,9.0,68,0.04,,,0.19,104.000000,,2013-02-25 00:21:00,
2013-02-24 16:31:00,37.0,27.0,-100.00,WNW,282,3.0,9.0,68,0.04,,,0.19,104.000000,,2013-02-25 00:31:00,
2013-02-24 16:41:00,37.0,27.0,-100.00,WNW,282,3.0,9.0,68,0.04,,,0.19,104.000000,,2013-02-25 00:41:00,
2013-02-24 16:51:00,37.0,27.0,-100.00,WNW,282,3.0,9.0,68,0.04,,,0.19,104.000000,,2013-02-25 00:51:00,
2013-02-24 17:21:00,33.0,28.0,-100.00,WNW,288,1.0,8.0,81,0.02,,,0.21,82.000000,,2013-02-25 01:21:00,
2013-02-24 17:31:00,33.0,28.0,-100.00,WNW,288,1.0,8.0,81,0.02,,,0.21,82.000000,,2013-02-25 01:31:00,
2013-02-24 17:42:00,33.0,28.0,-100.00,WNW,288,1.0,8.0,81,0.02,,,0.21,82.000000,,2013-02-25 01:42:00,
2013-02-24 17:51:00,33.0,28.0,-100.00,WNW,288,1.0,8.0,81,0.02,,,0.21,82.000000,,2013-02-25 01:51:00,
2013-02-24 18:21:00,31.0,28.0,-100.00,WNW,284,0.0,6.0,90,0.00,,,0.21,13.000000,,2013-02-25 02:21:00,
2013-02-24 18:31:00,31.0,28.0,-100.00,WNW,284,0.0,6.0,90,0.00,,,0.21,13.000000,,2013-02-25 02:31:00,
2013-02-24 18:41:00,31.0,28.0,-100.00,WNW,284,0.0,6.0,90,0.00,,,0.21,13.000000,,2013-02-25 02:41:00,
2013-02-24 18:52:00,31.0,28.0,-100.00,WNW,284,0.0,6.0,90,0.00,,,0.21,13.000000,,2013-02-25 02:52:00,
2013-02-24 19:21:00,28.0,27.0,-100.00,West,268,0.0,5.0,94,0.00,,,0.21,0.000000,,2013-02-25 03:21:00,
2013-02-24 19:31:00,28.0,27.0,-100.00,West,268,0.0,5.0,94,0.00,,,0.21,0.000000,,2013-02-25 03:31:00,
2013-02-24 19:41:00,28.0,27.0,-100.00,West,268,0.0,5.0,94,0.00,,,0.21,0.000000,,2013-02-25 03:41:00,
2013-02-24 19:51:00,28.0,27.0,-100.00,West,268,0.0,5.0,94,0.00,,,0.21,0.000000,,2013-02-25 03:51:00,
2013-02-24 20:21:00,29.0,28.0,-100.00,West,281,3.0,7.0,95,0.00,,,0.21,0.000000,,2013-02-25 04:21:00,
2013-02-24 20:31:00,29.0,28.0,-100.00,West,281,3.0,7.0,95,0.00,,,0.21,0.000000,,2013-02-25 04:31:00,
2013-02-24 20:41:00,29.0,28.0,-100.00,West,281,3.0,7.0,95,0.00,,,0.21,0.000000,,2013-02-25 04:41:00,
2013-02-24 20:51:00,29.0,28.0,-100.00,West,281,3.0,7.0,95,0.00,,,0.21,0.000000,,2013-02-25 04:51:00,
2013-02-24 21:22:00,27.0,26.0,-100.00,WNW,283,0.0,6.0,94,0.00,,,0.21,0.000000,,2013-02-25 05:22:00,
2013-02-24 21:31:00,27.0,26.0,-100.00,WNW,283,0.0,6.0,94,0.00,,,0.21,0.000000,,2013-02-25 05:31:00,
2013-02-24 21:41:00,27.0,26.0,-100.00,WNW,283,0.0,6.0,94,0.00,,,0.21,0.000000,,2013-02-25 05:41:00,
2013-02-24 21:52:00,27.0,26.0,-100.00,WNW,283,0.0,6.0,94,0.00,,,0.21,0.000000,,2013-02-25 05:52:00,
2013-02-24 22:21:00,27.0,26.0,-100.00,WNW,287,0.0,5.0,95,0.00,,,0.21,0.000000,,2013-02-25 06:21:00,
2013-02-24 22:31:00,27.0,26.0,-100.00,WNW,287,0.0,5.0,95,0.00,,,0.21,0.000000,,2013-02-25 06:31:00,
2013-02-24 22:41:00,27.0,26.0,-100.00,WNW,287,0.0,5.0,95,0.00,,,0.21,0.000000,,2013-02-25 06:41:00,
2013-02-24 22:51:00,27.0,26.0,-100.00,WNW,287,0.0,5.0,95,0.00,,,0.21,0.000000,,2013-02-25 06:51:00,
2013-02-24 23:11:00,28.0,23.0,-100.00,WSW,244,0.0,10.0,81,0.00,,,0.21,0.000000,,2013-02-25 07:11:00,
2013-02-24 23:21:00,28.0,23.0,-100.00,WSW,244,0.0,10.0,81,0.00,,,0.21,0.000000,,2013-02-25 07:21:00,
2013-02-24 23:31:00,28.0,23.0,-100.00,WSW,244,0.0,10.0,81,0.00,,,0.21,0.000000,,2013-02-25 07:31:00,
2013-02-24 23:41:00,28.0,23.0,-100.00,WSW,244,0.0,10.0,81,0.00,,,0.21,0.000000,,2013-02-25 07:41:00,
2013-02-24 23:51:00,28.0,23.0,-100.00,WSW,244,0.0,10.0,81,0.00,,,0.21,0.000000,,2013-02-25 07:51:00,